Destin, Florida, United States (32540)
Lat: 30.39N, Lon: 86.5W
Wx Zone: FLZ006
Local Info
Past Weather Observations for Wednesday, April 16, 2014

NOTE: This archive is for the closest National Weather Service station to Destin. Information may differ from the station used for current weather conditions.

Time Weather Temperature Dewpoint Humidity Pressure Winds Precip Visibility
23:53
Fair
59°F / 15°C 46°F / 8°C 63% 30.18 in
(1022 mb)
Calm -
22:53
Fair
N/A N/A N/A 30.18 in
(1022 mb)
Calm -
21:53
Fair
N/A N/A N/A 30.18 in
(1022 mb)
Calm -
20:53
Fair
N/A N/A N/A 30.18 in
(1022 mb)
Calm -
19:53
Fair
N/A N/A N/A 30.18 in
(1022 mb)
Calm -
18:53
Fair
N/A N/A N/A 30.15 in
(1021 mb)
Calm -
17:53
Fair
N/A N/A N/A 30.15 in
(1021 mb)
Calm -
16:53
Clear
66°F / 19°C 46°F / 8°C 49% 30.12 in
(1020 mb)
SE 3.5 mph
(SE 6 kph)
- 10SM
15:53
Clear
66°F / 19°C 45°F / 7°C 46% 30.12 in
(1020 mb)
Variable 5.8 mph
(Variable 9 kph)
- 10SM
14:53
Clear
68°F / 20°C 39°F / 4°C 35% 30.12 in
(1020 mb)
ENE 8.1 mph
(ENE 13 kph)
- 10SM
13:53
Clear
66°F / 19°C 39°F / 4°C 37% 30.15 in
(1021 mb)
E 9.2 mph
(E 15 kph)
- 10SM
12:53
Clear
64°F / 18°C 41°F / 5°C 43% 30.15 in
(1021 mb)
E 8.1 mph
(E 13 kph)
- 10SM
11:53
Clear
63°F / 17°C 39°F / 4°C 42% 30.18 in
(1022 mb)
E 10.4 mph
(E 17 kph)
- 10SM
10:53
Clear
57°F / 14°C 37°F / 3°C 48% 30.21 in
(1023 mb)
E 6.9 mph
(E 11 kph)
- 10SM
09:53
Clear
55°F / 13°C 37°F / 3°C 51% 30.24 in
(1024 mb)
NE 9.2 mph
(NE 15 kph)
- 10SM
08:53
Clear
52°F / 11°C 36°F / 2°C 54% 30.24 in
(1024 mb)
Variable 6.9 mph
(Variable 11 kph)
- 10SM
07:53
Clear
48°F / 9°C 34°F / 1°C 58% 30.21 in
(1023 mb)
ENE 11.5 mph
(ENE 19 kph)
- 10SM
06:53
Clear
46°F / 8°C 30°F / -1°C 53% 30.21 in
(1023 mb)
NE 9.2 mph
(NE 15 kph)
- 10SM
05:53
Clear
45°F / 7°C 30°F / -1°C 57% 30.18 in
(1022 mb)
NE 11.5 mph
(NE 19 kph)
- 10SM
04:53
Clear
45°F / 7°C 30°F / -1°C 57% 30.15 in
(1021 mb)
NE 13.8 mph
(NE 22 kph)
- 10SM
03:53
Clear
45°F / 7°C 30°F / -1°C 57% 30.15 in
(1021 mb)
NE 10.4 mph
(NE 17 kph)
- 10SM
02:53
Clear
46°F / 8°C 34°F / 1°C 62% 30.15 in
(1021 mb)
NE 9.2 mph
(NE 15 kph)
- 10SM
01:53
Clear
46°F / 8°C 34°F / 1°C 62% 30.15 in
(1021 mb)
NE 10.4 mph
(NE 17 kph)
- 10SM
00:53
Clear
48°F / 9°C 36°F / 2°C 62% 30.15 in
(1021 mb)
NNE 12.7 mph
(NNE 20 kph)
- 10SM
Time Weather Temperature Dewpoint Humidity Pressure Winds Precip Visibility


Weather for websites

WeatherForYou.com, LLC is not responsible for any damages or problems caused by this service. Current weather conditions are obtained from the closest station including government and personal stations which may have varying degrees of accuracy. Weather forecasts are derived from the NOAA NDFD. Like all things, this site belongs to Jesus Christ... He just trusts me to maintain it. If you have any questions or comments email webmaster@weatherforyou.com

Copyright © 2014, WeatherForYou.com LLC. All rights reserved.